Dewpoint
60 49 48 48 41 34 35 40 45 43 44 48 42 43 44 44 44 49 65 59 54 64 70 72 75 73 72 72 72 72 73 73 73 71 71 72 73 73 73 73 73 73 73 72 72 71 71 70 70
45 44 44 40 33 33 32 37 43 45 45 48 47 46 48 51 56 61 61 59 58 66 69 71 75 74 72 72 72 72 73 72 71 71 72 72 73 73 73 73 73 73 72 71 70 70 70 70 69
43 39 35 32 28 29 30 37 45 45 46 47 48 49 52 56 60 61 60 58 61 66 69 73 75 74 71 72 72 72 73 72 71 72 72 72 73 73 73 73 72 72 71 70 69 68 68 68 68
35 34 32 28 24 30 32 37 39 42 46 48 49 49 58 63 61 62 59 59 62 66 70 74 75 74 72 72 72 71 72 72 71 72 73 73 73 73 73 73 72 71 70 68 68 67 68 68 68
30 30 28 28 24 27 31 41 43 40 43 49 50 50 57 64 64 62 59 59 59 65 68 72 75 74 72 71 72 72 72 73 72 73 73 73 73 73 73 72 71 70 69 68 68 68 68 69 69
29 31 27 26 24 27 34 43 43 41 44 48 47 47 57 64 62 63 61 60 60 65 69 71 74 74 72 71 71 72 72 72 72 72 73 72 73 72 72 71 71 70 70 69 69 70 70 70 71
28 30 27 25 24 26 27 44 45 43 43 47 48 45 58 61 65 64 62 60 62 65 70 70 70 72 72 71 71 72 72 72 72 72 72 72 72 72 72 72 71 71 70 70 70 71 71 71 72
29 29 27 23 24 25 24 39 46 44 47 52 52 52 56 63 65 62 59 58 63 63 64 66 68 66 66 66 71 71 71 70 71 71 72 72 72 72 72 72 72 71 71 71 71 71 72 72 74
32 26 24 24 25 26 30 39 45 48 46 54 58 59 62 62 59 55 53 54 57 60 64 63 61 61 61 60 68 70 70 70 71 71 72 71 66 65 66 70 70 71 71 72 72 72 73 73 73
28 26 24 27 26 26 41 46 44 46 50 52 58 59 58 55 53 51 50 51 50 52 56 61 63 63 61 62 65 65 64 65 65 65 67 65 65 66 66 69 70 71 71 72 72 72 72 72 64
23 25 26 28 28 26 34 45 52 51 55 57 58 59 58 59 59 57 55 52 50 52 56 56 65 67 62 60 62 62 61 63 66 69 69 67 65 64 63 61 61 63 68 60 65 65 64 64 65
11 21 26 27 31 36 39 45 49 52 53 55 56 57 57 57 57 57 58 60 61 59 57 56 58 65 65 62 62 61 61 62 64 65 69 69 66 65 64 60 59 59 58 63 65 62 66 67 66
8 12 20 26 32 35 38 43 45 47 49 50 50 51 52 53 53 53 54 56 59 61 64 64 60 65 65 67 62 62 62 61 62 64 66 66 64 64 63 61 60 59 59 61 63 64 65 65 64
5 14 24 23 31 34 35 38 39 43 46 46 46 45 45 45 47 50 50 51 55 56 59 62 65 66 65 66 65 62 63 61 63 62 64 66 66 65 63 62 60 58 57 58 62 63 65 64 63
6 20 25 28 30 34 35 35 38 42 44 43 41 39 39 41 41 42 45 48 50 52 55 57 57 60 66 68 66 64 62 59 60 60 65 66 67 66 68 62 60 58 58 59 64 65 64 64 63
8 9 14 28 28 31 33 33 37 40 40 39 37 35 35 37 38 39 41 44 46 48 50 53 51 53 59 61 68 65 62 61 60 59 60 63 65 67 67 62 60 59 59 58 58 62 62 62 62
10 5 9 25 31 31 31 33 35 36 36 34 33 32 32 33 36 39 38 40 44 46 47 48 50 48 52 59 61 66 68 65 63 61 59 62 63 64 65 61 60 64 61 60 61 61 63 62 63
6 11 24 25 31 32 32 31 32 31 31 31 30 30 31 31 33 37 39 40 42 44 46 47 46 48 48 50 55 63 65 66 66 65 64 66 65 65 65 64 65 65 64 64 65 68 65 64 65
8 9 24 29 30 30 31 30 30 29 28 28 27 28 30 31 33 35 38 40 41 44 45 46 45 47 45 43 44 53 56 58 64 66 69 69 69 68 69 67 67 68 68 69 70 69 70 68 67
14 22 27 30 31 30 29 28 28 28 27 27 26 27 28 29 32 34 37 39 41 43 44 45 46 47 45 43 44 44 47 53 53 57 61 61 61 65 68 70 70 71 68 71 71 72 68 66 67
17 20 29 29 31 30 30 28 28 26 26 26 26 27 28 29 30 34 35 37 38 40 42 44 46 47 47 48 44 47 44 48 45 46 50 52 54 59 63 64 65 68 70 67 70 71 72 67 66
17 16 27 29 28 24 32 24 31 28 26 26 26 26 26 28 30 32 34 36 36 37 40 43 45 46 45 48 46 48 44 42 43 43 45 50 51 53 54 57 62 63 65 68 69 69 71 73 71
20 21 26 28 26 27 30 26 31 31 27 26 25 26 26 27 28 29 31 35 34 35 38 41 45 46 46 47 48 44 46 43 43 43 48 49 48 49 48 52 55 57 57 62 65 66 68 70 71
22 23 26 27 24 24 27 26 28 28 29 26 25 25 26 26 27 29 31 33 34 33 36 40 44 45 46 46 46 47 47 46 44 44 43 41 42 42 47 48 51 54 53 54 59 60 64 67 69
26 29 23 23 20 18 30 27 30 30 27 25 23 23 24 25 26 27 29 29 32 33 35 36 41 43 44 44 45 45 45 46 45 44 41 44 41 41 46 49 50 48 51 51 53 54 58 61 66
26 29 13 18 14 15 30 24 28 29 28 25 23 22 23 25 26 27 29 30 31 33 35 36 39 41 42 43 43 44 44 41 41 44 43 41 41 42 47 47 48 49 50 49 50 49 51 59 60
27 25 26 27 25 20 25 29 30 30 28 25 22 23 24 27 28 29 30 32 32 34 36 36 38 39 40 42 42 43 44 44 43 45 45 41 44 43 45 46 47 47 48 48 50 46 50 53 56
26 27 26 25 23 20 23 28 26 30 28 25 23 23 26 27 28 29 30 34 32 34 34 36 36 36 37 39 40 40 42 43 43 43 43 43 44 44 44 45 45 45 46 47 48 46 48 50 50
22 23 27 29 27 22 19 26 31 30 30 26 23 24 25 25 26 28 30 32 31 32 32 34 35 35 35 37 39 40 41 42 43 42 43 43 43 43 43 43 44 45 46 46 47 47 48 48 51
23 25 29 27 28 26 28 25 29 29 26 24 23 24 26 26 27 28 30 32 32 32 33 33 35 34 35 37 38 39 41 42 43 42 42 42 41 42 41 41 42 43 44 45 45 46 46 47 48
Lifted_Index
3 3 3 1 -0 -0 -0 -1 -2 -2 -2 -1 0 0 -0 -1 -1 -2 -1 1 1 -2 -3 -4 -4 -3 -3 -3 -2 -2 -3 -3 -2 -3 -3 -3 -3 -3 -3 -3 -3 -4 -3 -3 -3 -3 -3 -3 -3
4 4 3 1 -0 -0 0 -1 -2 -2 -2 -1 -1 -0 -1 -2 -2 -2 -1 1 0 -2 -3 -4 -4 -3 -3 -3 -3 -3 -3 -3 -3 -3 -3 -3 -3 -3 -3 -3 -4 -4 -3 -3 -2 -2 -2 -2 -2
4 3 2 1 1 1 1 0 -1 -2 -2 -2 -1 -2 -2 -3 -3 -2 -1 0 -1 -2 -4 -4 -4 -4 -3 -3 -3 -3 -3 -3 -3 -3 -3 -4 -4 -4 -4 -4 -4 -4 -3 -3 -2 -2 -2 -2 -2
4 3 2 1 1 2 2 1 -0 -1 -2 -2 -2 -3 -3 -4 -3 -2 -1 -0 -1 -3 -4 -4 -4 -4 -3 -3 -3 -3 -3 -3 -3 -4 -4 -4 -4 -4 -4 -4 -4 -4 -3 -3 -2 -2 -1 -1 -1
4 3 1 1 1 2 2 1 -0 -1 -1 -2 -3 -3 -4 -4 -3 -2 -1 -1 -2 -3 -4 -5 -5 -4 -4 -3 -3 -3 -3 -4 -4 -4 -4 -4 -4 -4 -4 -4 -4 -4 -3 -3 -2 -2 -2 -2 -2
4 3 1 1 1 2 1 0 -0 -1 -2 -2 -3 -3 -4 -4 -3 -2 -2 -1 -2 -3 -5 -5 -5 -5 -4 -3 -3 -4 -4 -4 -4 -4 -4 -4 -4 -4 -4 -4 -4 -4 -3 -3 -3 -3 -3 -3 -3
4 3 1 1 1 2 1 -0 -1 -2 -2 -3 -3 -3 -4 -4 -3 -2 -2 -1 -2 -4 -5 -5 -5 -5 -4 -4 -4 -4 -4 -4 -4 -4 -4 -4 -4 -4 -4 -4 -4 -4 -4 -4 -4 -4 -4 -4 -4
5 3 2 1 2 2 2 0 -2 -2 -3 -3 -3 -3 -4 -4 -3 -2 -1 -1 -2 -3 -4 -4 -4 -4 -4 -3 -4 -4 -4 -4 -4 -4 -4 -4 -4 -4 -4 -4 -4 -4 -4 -4 -4 -4 -5 -4 -4
5 3 2 1 2 2 2 0 -1 -2 -3 -3 -3 -3 -3 -3 -2 -0 0 0 -0 -1 -2 -3 -3 -3 -3 -3 -3 -4 -4 -3 -4 -4 -4 -3 -3 -3 -3 -3 -4 -4 -4 -4 -4 -5 -5 -4 -4
5 4 2 2 3 3 2 1 -1 -2 -2 -3 -3 -3 -3 -2 -1 0 1 1 1 1 -0 -1 -2 -2 -2 -2 -3 -3 -3 -3 -3 -3 -3 -3 -3 -3 -3 -3 -3 -3 -4 -4 -4 -4 -4 -4 -4
6 4 3 2 3 4 3 1 -0 -1 -2 -3 -3 -3 -2 -2 -1 -1 -0 0 1 1 1 0 -1 -2 -2 -2 -2 -2 -2 -3 -3 -3 -3 -3 -3 -3 -2 -2 -2 -2 -2 -3 -3 -4 -4 -4 -5
6 5 4 4 4 4 3 2 1 0 -0 -1 -1 -2 -2 -2 -1 -1 -1 -1 -1 -0 -0 -0 -0 -1 -1 -1 -1 -1 -2 -2 -2 -3 -3 -3 -3 -3 -2 -2 -1 -1 -2 -2 -3 -4 -4 -5 -5
7 6 6 6 5 5 4 3 3 2 1 1 -0 -1 -1 -1 -1 -2 -2 -2 -2 -1 -1 -2 -1 -1 -2 -1 -1 -1 -1 -1 -1 -2 -2 -3 -3 -2 -2 -1 -1 -1 -1 -2 -3 -4 -4 -5 -5
7 7 7 7 6 5 5 4 4 3 2 1 -0 -1 -0 -1 -1 -2 -2 -2 -2 -2 -2 -3 -3 -3 -2 -2 -1 -1 -0 -0 -0 -1 -1 -2 -2 -2 -2 -1 -1 -0 -0 -1 -3 -4 -4 -4 -4
6 6 6 6 6 6 5 4 4 4 3 1 -1 -1 -1 -1 -1 -2 -2 -2 -2 -2 -2 -3 -3 -3 -3 -3 -3 -2 -1 -1 -0 -0 -1 -1 -2 -2 -2 -1 -1 -0 0 -1 -2 -3 -4 -4 -4
6 5 5 5 6 5 5 4 4 4 3 1 -0 -1 -1 -1 -1 -1 -1 -1 -2 -2 -2 -3 -3 -3 -4 -4 -4 -3 -3 -2 -1 -1 -1 -1 -2 -2 -2 -1 -1 -0 -0 -1 -1 -2 -3 -3 -4
5 5 4 5 5 5 4 4 4 4 3 1 0 -0 -0 -0 -0 1 1 0 -1 -1 -2 -2 -3 -3 -3 -3 -4 -4 -4 -4 -3 -2 -2 -2 -2 -2 -2 -2 -1 -1 -1 -2 -2 -3 -3 -3 -4
5 5 5 5 5 5 4 4 4 4 2 1 0 0 0 1 2 4 4 3 2 1 -1 -2 -2 -3 -3 -3 -3 -4 -4 -5 -5 -4 -4 -3 -3 -3 -3 -3 -3 -3 -3 -4 -4 -4 -4 -4 -4
5 5 5 6 5 5 4 4 4 3 2 1 1 1 2 3 5 7 8 8 7 5 3 2 1 0 -1 -2 -3 -3 -4 -5 -5 -5 -4 -4 -4 -5 -5 -5 -5 -5 -5 -6 -6 -6 -6 -6 -6
6 5 5 5 5 5 4 4 4 4 3 2 2 2 3 5 7 9 11 11 11 10 9 8 7 6 5 3 1 -1 -3 -4 -4 -4 -4 -4 -4 -4 -5 -5 -6 -6 -6 -6 -6 -7 -7 -7 -7
6 5 5 5 5 5 4 4 4 4 3 3 3 4 6 7 8 10 11 12 12 12 12 12 12 12 11 9 7 4 1 -1 -2 -3 -3 -3 -4 -4 -4 -5 -5 -5 -5 -5 -6 -7 -7 -7 -7
5 5 5 4 4 4 4 3 4 4 4 3 4 5 7 9 10 11 12 12 13 13 14 14 14 14 14 13 12 10 8 5 3 2 1 -0 -1 -2 -3 -4 -4 -3 -3 -3 -5 -6 -7 -7 -7
4 4 4 4 3 3 3 3 3 4 3 3 4 6 8 10 11 12 12 13 14 14 15 15 15 15 15 15 14 13 12 11 10 9 8 6 5 3 1 -1 -2 -2 -2 -2 -3 -4 -5 -6 -6
4 3 3 3 2 2 2 2 3 3 3 4 5 7 9 10 11 12 13 13 14 15 15 15 15 15 15 15 15 14 14 14 13 13 12 11 10 9 7 5 2 1 -0 -1 -1 -3 -4 -4 -5
3 2 2 1 1 1 1 2 3 4 4 5 6 8 10 10 11 11 12 14 14 15 15 15 15 15 15 15 15 15 15 15 14 14 14 13 13 13 12 11 9 7 5 4 3 1 -1 -2 -3
2 1 1 0 0 0 1 2 3 4 5 6 8 9 10 10 11 11 13 14 14 15 15 15 15 15 15 15 15 15 15 15 15 15 15 15 15 15 15 14 14 13 12 10 9 7 4 1 0
1 1 0 -0 -0 -0 0 1 2 3 4 6 7 8 9 10 12 13 14 14 15 15 15 15 15 15 15 15 15 15 15 15 15 16 16 16 16 16 16 16 15 15 15 14 13 12 10 7 5
1 1 0 0 -0 -0 0 1 1 2 3 5 7 8 10 11 13 14 14 15 15 15 15 15 15 15 15 15 15 15 15 15 15 16 16 16 17 17 16 16 16 16 15 15 15 14 13 12 10
1 1 0 -0 -0 -1 -0 0 1 2 3 5 7 9 11 13 14 14 14 15 15 15 15 15 15 15 15 15 15 15 15 15 16 16 16 17 17 17 17 16 16 16 15 15 14 14 14 13 12
2 1 1 -0 -1 -1 -1 0 2 3 4 6 8 10 12 13 14 14 14 15 15 15 15 15 15 15 15 15 15 15 16 16 16 16 17 17 17 17 17 17 16 16 15 15 14 14 14 14 13